Home   Weather   Coventry   Past weeks

Flag for United Kingdom Past Weather in Coventry, England, United Kingdom — Yesterday and Last 2 Weeks

45 °F


Feels Like: 42 °F
Forecast: 50 / 59 °F
Wind: 5 mph from Northwest

Location: Birmingham / Airport

Current Time: Oct 25, 2016 at 7:56:43 AM

Latest Report: Oct 25, 2016 at 7:20 AM

Visibility: 4 mi

Pressure: 30.15 "Hg

Humidity: 100%

Dew Point: 45 °F

Location of CoventryLocation

Past Weather in Coventry — Graph


Coventry Temperature Yesterday

Maximum temperature yesterday: 54 °F (at 2:20 PM)
Minimum temperature yesterday: 43 °F (at 12:50 AM)
Average temperature yesterday: 49 °F

High & Low Weather Summary for the Past Weeks

High61 °F (Oct 16, 1:20 PM)100% (Oct 10, 6:20 AM)30.36 "Hg (Oct 10, 6:20 AM)
Low39 °F (Oct 23, 2:50 AM)54% (Oct 18, 1:50 PM)29.62 "Hg (Oct 15, 6:50 AM)
Average50 °F87%30.02 "Hg
* Reported Oct 10 6:20 AM — Oct 25 6:50 AM, Coventry, Weather by CustomWeather, © 2016

Note: Actual official high and low records may vary slightly from our data, if they occured in-between our weather recording intervals... More about our weather records


Coventry Weather History for the Previous 24 Hours

Scroll right to see more
Time TempWeatherWind HumidityBarometerVisibility
6:50 AM
Tue, Oct 25
45 °FClear.3 mph100%30.15 "Hg4 mi
6:20 AM45 °FClear.5 mph100%30.15 "Hg4 mi
5:50 AM45 °FClear.3 mph100%30.12 "Hg6 mi
5:20 AM45 °FClear.No wind100%30.12 "Hg6 mi
4:50 AM45 °FClear.3 mph100%30.12 "Hg5 mi
4:20 AM45 °FClear.2 mph100%30.12 "Hg5 mi
3:50 AM45 °FClear.2 mph100%30.12 "Hg6 mi
3:20 AM46 °FClear.3 mph100%30.12 "Hg6 mi
2:50 AM46 °FClear.2 mph100%30.12 "Hg6 mi
2:20 AM46 °FClear.2 mph100%30.09 "Hg10 mi
1:50 AM46 °FClear.2 mph100%30.09 "Hg10 mi
1:20 AM46 °FClear.3 mph93%30.09 "Hg10 mi
12:50 AM46 °FClear.3 mph93%30.09 "Hg10 mi
12:20 AM48 °FClear.5 mph94%30.07 "Hg10 mi
11:50 PM
Mon, Oct 24
48 °FClear.5 mph87%30.07 "Hg10 mi
11:20 PM48 °FClear.5 mph87%30.07 "Hg10 mi
10:50 PM50 °FPassing clouds.6 mph82%30.07 "HgN/A
10:20 PM50 °FClear.7 mph82%30.04 "Hg10 mi
9:50 PM50 °FClear.7 mph82%30.04 "Hg10 mi
9:20 PM50 °FClear.7 mph82%30.04 "Hg10 mi
8:50 PM50 °FClear.8 mph82%30.04 "Hg10 mi
8:20 PM50 °FClear.6 mph88%30.01 "Hg10 mi
7:50 PM50 °FPassing clouds.6 mph82%30.01 "HgN/A
7:20 PM50 °FClear.6 mph82%30.01 "Hg10 mi
6:50 PM52 °FClear.6 mph77%29.98 "Hg10 mi
6:20 PM52 °FClear.5 mph72%29.98 "Hg10 mi
5:50 PM52 °FSunny.6 mph72%29.98 "Hg10 mi
5:20 PM52 °FPassing clouds.8 mph72%29.98 "HgN/A
4:50 PM54 °FPassing clouds.9 mph67%29.95 "HgN/A
4:20 PM54 °FPassing clouds.9 mph67%29.95 "HgN/A
3:50 PM54 °FPassing clouds.8 mph67%29.95 "HgN/A
3:20 PM54 °FPassing clouds.10 mph67%29.95 "HgN/A
2:50 PM54 °FScattered clouds.8 mph77%29.95 "HgN/A
2:20 PM54 °FScattered clouds.7 mph77%29.95 "HgN/A
1:50 PM52 °FScattered clouds.8 mph82%29.95 "HgN/A
1:20 PM52 °FPassing clouds.8 mph82%29.95 "HgN/A
12:50 PM52 °FPassing clouds.8 mph82%29.95 "HgN/A
12:20 PM52 °FPassing clouds.9 mph82%29.95 "HgN/A
11:50 AM50 °FSunny.8 mph88%29.95 "Hg10 mi
11:20 AM50 °FSunny.7 mph88%29.95 "Hg10 mi
10:50 AM50 °FSunny.8 mph88%29.92 "Hg10 mi
10:20 AM48 °FPassing clouds.7 mph94%29.92 "HgN/A
9:50 AM48 °FPassing clouds.7 mph94%29.92 "HgN/A
9:20 AM48 °FPassing clouds.8 mph94%29.92 "HgN/A
8:50 AM46 °FScattered clouds.6 mph93%29.92 "HgN/A
8:20 AM46 °FPartly sunny.6 mph93%29.92 "HgN/A
7:50 AM46 °FScattered clouds.6 mph93%29.92 "HgN/A
7:20 AM46 °FPassing clouds.7 mph93%29.92 "HgN/A
Weather by CustomWeather, © 2016

See weather overviewHow to use our weather pages